Location: Unspecified
(44.0600°N, 0.0000°E)
Time: 20:08:39
(UTC+00:00)

Iridium 24 - Visible Passes

Search period start: 04 April 2026 00:00
Search period end: 14 April 2026 00:00
Orbit: 743 x 758 km, 86.4° (Epoch: 29 March)

Date Brightness Start Highest point End Pass type
(mag) Time Alt. Az. Time Alt. Az. Time Alt. Az.
4 Apr 6.2 19:04:46 10° NNE 19:09:15 31° E 19:13:42 10° SE visible
4 Apr 7.2 20:44:56 10° NNW 20:49:21 31° W 20:53:44 10° SW visible
5 Apr 5.8 20:02:54 10° N 20:07:57 68° W 20:12:56 10° S visible
6 Apr 5.5 19:21:21 10° N 19:26:21 56° E 19:31:17 10° SSE visible
6 Apr 8.1 21:02:44 10° NW 21:05:59 17° WNW 21:09:14 10° WSW visible
7 Apr 7.0 20:20:08 10° NNW 20:24:45 36° W 20:29:20 10° SSW visible
8 Apr 5.6 19:38:13 10° N 19:43:18 80° W 19:48:20 10° S visible
9 Apr 8.0 20:37:45 10° NNW 20:41:25 20° W 20:45:04 10° SW visible
10 Apr 6.7 19:55:22 10° NNW 20:00:08 43° W 20:04:52 10° SSW visible
11 Apr 5.5 19:13:33 10° N 19:18:39 87° E 19:23:41 10° S visible
11 Apr 8.6 20:56:33 10° WNW 20:57:58 11° WNW 20:59:22 10° W visible
12 Apr 7.8 20:12:50 10° NNW 20:16:50 24° W 20:20:49 10° SW visible
13 Apr 6.4 19:30:36 10° NNW 19:35:30 51° W 19:40:21 10° SSW visible
